Precipitable_Water
0.80 0.76 0.83 0.90 0.93 0.87 0.84 0.83 0.82 0.85 0.89 0.93 0.93 0.95 0.92 0.88 0.86 0.86 0.87 0.86 0.85 0.91 0.97 0.98 0.99 1.05 1.08 1.10 1.12 1.15 1.14 1.11 1.08 1.01 0.99 1.04 0.99 1.03 1.16 1.13 1.12 1.12 1.10 1.05 1.01 0.90 0.84 0.81 0.91 1.08 1.15 1.16 1.17 1.19 1.22 1.20 1.17 1.12 1.09 1.07 1.04 1.00 0.98
0.82 0.83 0.90 0.93 0.89 0.87 0.82 0.83 0.79 0.80 0.82 0.89 0.94 0.94 0.95 0.92 0.91 0.89 0.87 0.84 0.80 0.81 0.86 0.92 0.98 1.02 1.05 1.06 1.09 1.10 1.09 1.08 1.06 1.07 1.05 1.04 1.05 1.01 1.04 1.07 1.09 1.04 1.04 1.03 1.01 0.97 0.86 0.81 0.85 0.91 0.94 1.07 1.11 1.13 1.14 1.17 1.15 1.11 1.06 1.00 0.95 0.88 0.85
0.83 0.85 0.89 0.88 0.87 0.86 0.80 0.77 0.75 0.76 0.80 0.83 0.88 0.92 0.94 0.96 0.94 0.91 0.86 0.84 0.80 0.79 0.82 0.84 0.90 0.95 1.05 1.10 1.14 1.12 1.12 1.08 1.08 1.06 1.06 1.11 1.12 1.11 1.09 1.07 0.99 0.98 0.95 0.92 0.91 0.91 0.91 0.90 0.82 0.86 0.91 0.89 0.87 0.99 1.11 1.11 1.09 1.06 0.97 0.88 0.78 0.74 0.69
0.83 0.85 0.87 0.87 0.85 0.82 0.76 0.74 0.75 0.78 0.84 0.84 0.88 0.92 0.96 0.93 0.92 0.93 0.89 0.85 0.87 0.88 0.88 0.86 0.86 0.92 1.02 1.09 1.12 1.11 1.09 1.07 1.04 1.04 1.04 1.11 1.14 1.13 1.12 1.08 1.02 0.96 0.88 0.82 0.84 0.87 0.86 0.83 0.84 0.85 0.88 0.90 0.89 0.88 1.02 1.08 1.04 0.94 0.85 0.77 0.68 0.63 0.57
0.86 0.85 0.81 0.77 0.78 0.75 0.74 0.74 0.79 0.83 0.85 0.86 0.86 0.87 0.88 0.89 0.86 0.88 0.89 0.86 0.85 0.90 0.92 0.87 0.88 0.97 1.06 1.11 1.11 1.08 1.06 1.02 1.02 0.99 1.00 1.02 1.07 1.10 1.10 1.10 1.06 1.04 0.99 0.94 0.94 0.93 0.88 0.87 0.86 0.84 0.83 0.88 0.90 0.92 0.97 0.97 0.93 0.80 0.73 0.65 0.58 0.52 0.47
0.89 0.85 0.81 0.77 0.77 0.74 0.78 0.77 0.78 0.80 0.84 0.82 0.83 0.80 0.81 0.83 0.81 0.80 0.82 0.82 0.82 0.86 0.88 0.86 0.83 0.91 0.98 1.03 0.96 0.97 0.96 0.92 0.91 0.90 0.91 0.95 0.97 0.97 1.03 1.08 1.08 1.07 1.01 1.03 1.02 0.97 0.96 0.96 0.92 0.83 0.85 0.88 0.82 0.84 0.88 0.84 0.71 0.68 0.66 0.60 0.55 0.48 0.41
0.91 0.88 0.84 0.81 0.79 0.79 0.81 0.80 0.82 0.85 0.84 0.79 0.77 0.74 0.78 0.81 0.80 0.77 0.79 0.80 0.82 0.84 0.86 0.84 0.81 0.82 0.86 0.86 0.87 0.89 0.89 0.90 0.89 0.87 0.86 0.88 0.89 0.94 1.02 1.02 1.05 1.06 1.06 1.05 1.04 1.02 0.98 0.94 0.89 0.84 0.81 0.82 0.81 0.78 0.78 0.69 0.62 0.53 0.54 0.56 0.52 0.46 0.43
0.96 0.90 0.85 0.81 0.81 0.83 0.86 0.87 0.90 0.92 0.85 0.81 0.78 0.79 0.81 0.79 0.80 0.78 0.76 0.77 0.77 0.77 0.81 0.80 0.78 0.79 0.82 0.83 0.85 0.87 0.89 0.89 0.89 0.89 0.89 0.89 0.88 0.92 0.97 1.02 1.05 1.07 1.11 1.08 1.07 1.03 1.02 0.98 0.89 0.85 0.78 0.70 0.69 0.67 0.60 0.59 0.53 0.49 0.44 0.48 0.49 0.45 0.43
0.98 0.88 0.82 0.78 0.81 0.87 0.91 0.94 0.94 0.93 0.88 0.86 0.85 0.85 0.81 0.80 0.77 0.76 0.76 0.75 0.74 0.77 0.79 0.76 0.74 0.76 0.79 0.80 0.81 0.86 0.85 0.90 0.88 0.89 0.91 0.92 0.91 0.93 0.97 1.05 1.08 1.09 1.14 1.12 1.10 1.07 1.05 0.96 0.87 0.77 0.71 0.64 0.54 0.49 0.49 0.44 0.43 0.41 0.48 0.41 0.44 0.47 0.45
0.96 0.87 0.81 0.80 0.85 0.92 0.96 0.97 0.95 0.97 0.94 0.88 0.86 0.85 0.81 0.79 0.77 0.74 0.73 0.74 0.74 0.75 0.73 0.71 0.68 0.70 0.75 0.77 0.79 0.83 0.84 0.86 0.87 0.88 0.91 0.91 0.93 0.96 0.97 1.01 1.04 1.07 1.11 1.12 1.09 1.06 0.97 0.89 0.81 0.76 0.71 0.64 0.53 0.44 0.37 0.35 0.36 0.35 0.40 0.41 0.37 0.44 0.52
0.98 0.95 0.90 0.88 0.91 0.93 0.96 0.96 0.98 0.98 0.95 0.93 0.89 0.84 0.78 0.75 0.74 0.72 0.70 0.69 0.70 0.69 0.67 0.66 0.64 0.65 0.70 0.73 0.77 0.79 0.79 0.78 0.76 0.79 0.82 0.84 0.85 0.89 0.91 0.93 0.96 0.98 1.04 1.04 1.01 1.00 0.95 0.87 0.79 0.74 0.72 0.68 0.55 0.43 0.35 0.31 0.31 0.36 0.37 0.42 0.42 0.43 0.51
1.04 1.00 0.96 0.94 0.94 0.94 0.94 0.95 0.98 1.00 0.98 0.95 0.88 0.80 0.70 0.70 0.68 0.65 0.62 0.62 0.63 0.61 0.61 0.60 0.59 0.61 0.67 0.69 0.71 0.71 0.71 0.70 0.68 0.67 0.72 0.73 0.73 0.76 0.77 0.78 0.83 0.87 0.93 0.94 0.93 0.95 0.96 0.93 0.80 0.69 0.65 0.59 0.51 0.45 0.40 0.36 0.31 0.37 0.42 0.38 0.43 0.48 0.50
1.05 1.00 0.97 0.94 0.94 0.95 0.95 0.96 0.99 0.98 0.95 0.93 0.85 0.72 0.66 0.64 0.62 0.57 0.55 0.59 0.58 0.57 0.57 0.56 0.55 0.57 0.61 0.64 0.67 0.68 0.68 0.67 0.64 0.61 0.62 0.66 0.69 0.69 0.68 0.67 0.71 0.77 0.82 0.85 0.86 0.86 0.84 0.83 0.80 0.70 0.57 0.53 0.48 0.46 0.42 0.39 0.37 0.39 0.47 0.45 0.46 0.48 0.51
1.05 1.02 0.99 0.97 0.95 0.97 0.96 0.97 0.98 0.95 0.91 0.85 0.76 0.66 0.63 0.60 0.55 0.50 0.52 0.55 0.55 0.55 0.53 0.52 0.54 0.55 0.56 0.57 0.59 0.63 0.66 0.65 0.63 0.61 0.59 0.58 0.62 0.65 0.66 0.67 0.70 0.73 0.74 0.70 0.68 0.67 0.65 0.65 0.66 0.66 0.59 0.52 0.49 0.48 0.45 0.41 0.40 0.42 0.47 0.51 0.48 0.48 0.52
1.09 1.05 1.02 1.00 0.97 0.98 0.97 0.96 0.96 0.88 0.81 0.73 0.68 0.64 0.57 0.50 0.49 0.49 0.49 0.51 0.53 0.52 0.52 0.51 0.52 0.53 0.52 0.53 0.54 0.56 0.59 0.61 0.59 0.58 0.57 0.54 0.54 0.56 0.58 0.60 0.62 0.65 0.67 0.64 0.62 0.60 0.60 0.59 0.59 0.58 0.57 0.55 0.52 0.50 0.50 0.45 0.45 0.46 0.45 0.50 0.49 0.54 0.54
1.11 1.07 1.04 1.04 1.01 0.98 0.97 0.94 0.90 0.79 0.72 0.66 0.70 0.66 0.57 0.54 0.51 0.48 0.46 0.49 0.50 0.49 0.48 0.48 0.48 0.49 0.50 0.50 0.48 0.49 0.53 0.55 0.53 0.50 0.48 0.47 0.48 0.50 0.50 0.52 0.54 0.57 0.59 0.57 0.57 0.58 0.59 0.58 0.60 0.60 0.60 0.60 0.58 0.57 0.55 0.54 0.54 0.50 0.49 0.49 0.52 0.52 0.53
1.20 1.12 1.05 1.07 1.03 1.00 0.99 0.94 0.85 0.74 0.68 0.68 0.72 0.70 0.63 0.59 0.56 0.51 0.47 0.47 0.48 0.47 0.46 0.47 0.47 0.48 0.47 0.46 0.45 0.45 0.48 0.51 0.50 0.46 0.44 0.43 0.44 0.45 0.46 0.47 0.50 0.53 0.54 0.54 0.57 0.59 0.59 0.59 0.59 0.59 0.60 0.61 0.60 0.58 0.59 0.61 0.62 0.57 0.55 0.52 0.56 0.55 0.57
1.10 1.12 1.15 1.09 1.04 1.03 1.00 0.94 0.84 0.74 0.72 0.71 0.75 0.73 0.66 0.63 0.59 0.55 0.53 0.49 0.46 0.48 0.49 0.50 0.49 0.49 0.50 0.50 0.49 0.48 0.50 0.51 0.51 0.50 0.51 0.52 0.53 0.52 0.50 0.50 0.52 0.56 0.58 0.57 0.58 0.58 0.59 0.59 0.61 0.61 0.60 0.62 0.63 0.66 0.67 0.66 0.65 0.64 0.60 0.58 0.59 0.62 0.64
1.16 1.14 1.17 1.13 1.07 1.04 1.00 0.95 0.86 0.77 0.76 0.73 0.76 0.76 0.69 0.62 0.60 0.57 0.57 0.55 0.51 0.51 0.53 0.54 0.52 0.52 0.52 0.51 0.51 0.53 0.55 0.56 0.57 0.58 0.59 0.60 0.59 0.59 0.57 0.56 0.56 0.57 0.57 0.57 0.59 0.64 0.65 0.65 0.66 0.66 0.65 0.66 0.68 0.68 0.68 0.68 0.68 0.66 0.65 0.64 0.64 0.63 0.67
1.20 1.15 1.18 1.12 1.06 1.06 1.02 0.96 0.89 0.81 0.81 0.76 0.75 0.75 0.72 0.64 0.63 0.59 0.57 0.58 0.57 0.56 0.57 0.55 0.54 0.54 0.57 0.55 0.53 0.56 0.60 0.62 0.63 0.64 0.63 0.63 0.63 0.63 0.63 0.62 0.60 0.61 0.61 0.62 0.62 0.64 0.65 0.66 0.66 0.66 0.68 0.70 0.72 0.72 0.71 0.72 0.72 0.70 0.69 0.67 0.67 0.68 0.68
1.20 1.18 1.18 1.14 1.09 1.06 1.02 1.01 0.95 0.89 0.88 0.80 0.78 0.78 0.73 0.67 0.67 0.65 0.60 0.58 0.60 0.61 0.61 0.58 0.55 0.57 0.60 0.59 0.58 0.58 0.62 0.64 0.64 0.65 0.65 0.64 0.65 0.64 0.64 0.64 0.63 0.63 0.64 0.64 0.64 0.65 0.66 0.65 0.67 0.67 0.70 0.72 0.72 0.72 0.72 0.73 0.72 0.71 0.70 0.69 0.68 0.68 0.70
1.16 1.15 1.12 1.11 1.07 1.07 1.05 1.03 1.01 0.99 0.94 0.86 0.87 0.82 0.77 0.71 0.71 0.70 0.68 0.63 0.62 0.63 0.63 0.61 0.58 0.58 0.62 0.60 0.60 0.60 0.62 0.64 0.65 0.65 0.65 0.65 0.65 0.65 0.64 0.63 0.66 0.68 0.67 0.68 0.68 0.68 0.69 0.69 0.68 0.67 0.71 0.73 0.73 0.74 0.73 0.72 0.72 0.71 0.70 0.70 0.70 0.73 0.72
1.13 1.14 1.14 1.14 1.14 1.12 1.08 1.10 1.10 1.05 0.98 0.93 0.91 0.91 0.84 0.77 0.77 0.74 0.74 0.70 0.68 0.66 0.65 0.65 0.64 0.61 0.61 0.61 0.60 0.61 0.63 0.65 0.66 0.66 0.65 0.65 0.65 0.66 0.66 0.65 0.66 0.69 0.70 0.71 0.71 0.71 0.72 0.73 0.74 0.74 0.74 0.76 0.76 0.76 0.75 0.74 0.73 0.73 0.72 0.70 0.71 0.73 0.72
1.12 1.10 1.08 1.14 1.13 1.11 1.06 1.08 1.11 1.07 1.01 0.96 0.93 0.91 0.89 0.83 0.80 0.80 0.79 0.78 0.76 0.74 0.72 0.70 0.67 0.65 0.65 0.63 0.62 0.61 0.61 0.63 0.66 0.66 0.65 0.65 0.65 0.67 0.69 0.71 0.73 0.74 0.73 0.71 0.70 0.70 0.70 0.71 0.74 0.76 0.80 0.82 0.83 0.81 0.78 0.76 0.76 0.77 0.75 0.74 0.75 0.74 0.72
1.06 1.07 1.09 1.10 1.10 1.08 1.07 1.06 1.09 1.11 1.04 1.00 0.96 0.96 0.92 0.88 0.82 0.80 0.78 0.78 0.78 0.78 0.78 0.79 0.76 0.73 0.70 0.68 0.67 0.64 0.62 0.61 0.63 0.65 0.66 0.65 0.66 0.67 0.68 0.70 0.71 0.72 0.71 0.70 0.70 0.70 0.71 0.72 0.74 0.77 0.81 0.84 0.86 0.88 0.88 0.83 0.80 0.78 0.77 0.76 0.75 0.76 0.75
1.03 1.03 1.03 1.03 1.04 1.05 1.06 1.10 1.10 1.04 1.01 1.02 1.03 0.97 0.95 0.94 0.91 0.86 0.81 0.77 0.76 0.77 0.78 0.80 0.79 0.79 0.79 0.78 0.75 0.73 0.70 0.66 0.63 0.62 0.63 0.65 0.66 0.66 0.68 0.69 0.68 0.70 0.71 0.72 0.72 0.73 0.72 0.72 0.75 0.79 0.83 0.86 0.88 0.89 0.88 0.88 0.88 0.84 0.83 0.80 0.78 0.78 0.78
0.83 0.86 0.89 0.92 0.96 1.00 1.01 1.00 1.01 0.98 1.02 1.02 1.01 1.00 0.97 0.94 0.93 0.92 0.90 0.87 0.84 0.82 0.81 0.82 0.81 0.78 0.77 0.79 0.81 0.81 0.81 0.80 0.78 0.73 0.69 0.67 0.67 0.67 0.66 0.66 0.66 0.67 0.71 0.73 0.73 0.73 0.75 0.79 0.81 0.83 0.85 0.86 0.88 0.88 0.87 0.88 0.88 0.88 0.87 0.84 0.82 0.79 0.83
0.75 0.77 0.78 0.79 0.81 0.82 0.82 0.85 0.89 0.98 1.01 1.00 1.02 1.01 0.96 0.96 0.97 0.94 0.92 0.91 0.88 0.86 0.87 0.88 0.86 0.84 0.82 0.78 0.76 0.77 0.79 0.81 0.81 0.81 0.82 0.82 0.81 0.80 0.78 0.75 0.73 0.72 0.74 0.77 0.78 0.79 0.80 0.81 0.83 0.84 0.85 0.85 0.86 0.86 0.87 0.87 0.86 0.86 0.86 0.87 0.85 0.84 0.85
0.73 0.74 0.75 0.75 0.76 0.75 0.76 0.76 0.77 0.81 0.82 0.84 0.88 0.94 0.95 0.95 0.95 0.96 0.97 0.94 0.90 0.87 0.89 0.90 0.90 0.89 0.88 0.86 0.84 0.81 0.78 0.77 0.77 0.77 0.78 0.81 0.84 0.88 0.88 0.86 0.85 0.84 0.85 0.85 0.86 0.86 0.85 0.84 0.84 0.86 0.86 0.86 0.85 0.84 0.85 0.87 0.88 0.88 0.88 0.88 0.87 0.86 0.86
0.68 0.68 0.68 0.68 0.68 0.68 0.68 0.70 0.73 0.75 0.73 0.72 0.70 0.67 0.69 0.72 0.78 0.83 0.88 0.90 0.88 0.88 0.90 0.93 0.93 0.93 0.92 0.91 0.89 0.86 0.83 0.81 0.80 0.80 0.81 0.83 0.86 0.88 0.87 0.90 0.97 1.01 1.02 1.00 0.98 0.96 0.93 0.90 0.88 0.85 0.87 0.87 0.86 0.83 0.82 0.86 0.87 0.87 0.88 0.88 0.88 0.87 0.86
0.63 0.62 0.64 0.64 0.65 0.65 0.64 0.63 0.62 0.64 0.63 0.64 0.64 0.65 0.66 0.66 0.68 0.71 0.76 0.81 0.87 0.86 0.84 0.86 0.87 0.89 0.90 0.92 0.91 0.89 0.88 0.83 0.82 0.82 0.83 0.87 0.90 0.92 0.92 0.89 0.86 0.86 0.90 0.90 0.95 0.96 0.96 0.92 0.84 0.84 0.86 0.84 0.81 0.80 0.80 0.83 0.84 0.84 0.84 0.87 0.88 0.87 0.80
0.63 0.61 0.60 0.60 0.60 0.60 0.62 0.63 0.64 0.64 0.63 0.63 0.63 0.64 0.63 0.62 0.62 0.64 0.66 0.69 0.74 0.77 0.79 0.83 0.87 0.88 0.87 0.87 0.86 0.85 0.83 0.81 0.78 0.78 0.78 0.79 0.83 0.86 0.87 0.87 0.86 0.87 0.90 0.91 0.91 0.93 0.93 0.89 0.85 0.86 0.84 0.83 0.79 0.77 0.79 0.81 0.81 0.80 0.81 0.82 0.83 0.80 0.71
0.65 0.64 0.63 0.62 0.61 0.61 0.60 0.59 0.59 0.59 0.60 0.61 0.62 0.64 0.64 0.64 0.62 0.62 0.63 0.63 0.63 0.64 0.65 0.67 0.70 0.73 0.77 0.81 0.83 0.81 0.80 0.77 0.73 0.73 0.75 0.77 0.79 0.84 0.86 0.87 0.88 0.89 0.90 0.90 0.90 0.92 0.93 0.92 0.85 0.85 0.85 0.82 0.78 0.76 0.81 0.81 0.82 0.81 0.77 0.76 0.75 0.72 0.67
0.66 0.66 0.66 0.65 0.65 0.64 0.63 0.62 0.62 0.61 0.59 0.58 0.56 0.55 0.54 0.55 0.56 0.58 0.61 0.63 0.64 0.65 0.65 0.64 0.65 0.65 0.66 0.69 0.74 0.77 0.77 0.76 0.76 0.75 0.74 0.75 0.77 0.77 0.79 0.81 0.83 0.85 0.86 0.88 0.90 0.90 0.90 0.90 0.90 0.90 0.88 0.82 0.81 0.84 0.84 0.81 0.81 0.81 0.78 0.76 0.71 0.68 0.65
0.65 0.64 0.63 0.62 0.61 0.60 0.61 0.61 0.60 0.58 0.57 0.56 0.55 0.54 0.54 0.53 0.52 0.51 0.51 0.52 0.55 0.58 0.63 0.65 0.66 0.67 0.67 0.66 0.70 0.74 0.74 0.72 0.72 0.71 0.70 0.69 0.70 0.70 0.72 0.74 0.76 0.81 0.84 0.84 0.84 0.87 0.88 0.89 0.90 0.90 0.92 0.92 0.94 0.91 0.87 0.80 0.77 0.76 0.74 0.70 0.65 0.61 0.59
0.57 0.57 0.55 0.55 0.53 0.52 0.53 0.52 0.52 0.51 0.50 0.49 0.47 0.46 0.45 0.46 0.45 0.45 0.45 0.45 0.46 0.47 0.50 0.53 0.57 0.61 0.64 0.66 0.67 0.71 0.73 0.73 0.73 0.72 0.68 0.66 0.66 0.66 0.68 0.70 0.71 0.75 0.78 0.79 0.80 0.82 0.86 0.88 0.91 0.94 0.94 0.91 0.94 0.91 0.86 0.79 0.74 0.68 0.64 0.60 0.57 0.55 0.55
0.52 0.51 0.50 0.49 0.48 0.46 0.45 0.44 0.44 0.44 0.43 0.42 0.41 0.40 0.40 0.39 0.39 0.38 0.37 0.38 0.39 0.40 0.41 0.42 0.45 0.50 0.56 0.60 0.64 0.70 0.74 0.76 0.76 0.73 0.71 0.68 0.67 0.67 0.66 0.67 0.70 0.73 0.75 0.76 0.78 0.81 0.82 0.83 0.85 0.88 0.90 0.92 0.94 0.89 0.80 0.74 0.69 0.65 0.61 0.59 0.56 0.54 0.52
Wind_Speed
11 10 9 9 8 7 7 7 6 5 5 6 5 5 5 5 6 6 6 6 6 6 6 7 7 8 8 9 9 10 10 10 10 10 10 10 10 10 9 9 9 8 9 9 8 8 7 6 6 6 6 6 6 6 6 5 5 5 4 4 4 5 5
11 10 10 9 8 7 7 7 6 6 6 6 6 5 5 4 5 6 7 7 7 7 7 7 7 7 7 8 9 10 10 10 10 10 10 11 11 10 10 9 9 9 9 9 8 8 7 7 7 7 7 7 6 6 6 6 6 5 5 5 5 5 5
11 10 10 9 9 8 8 7 7 6 6 6 6 5 5 4 5 6 7 7 7 7 7 6 7 7 7 8 8 9 9 9 10 10 10 11 11 11 10 10 10 10 9 9 9 9 8 8 8 8 8 8 7 7 8 7 7 6 6 5 6 6 6
11 10 10 10 10 9 8 7 7 7 6 6 6 6 5 5 5 5 6 6 6 7 6 6 6 7 7 8 8 8 8 8 9 10 10 11 11 11 11 11 11 11 11 11 11 11 10 9 9 9 9 8 8 8 8 8 7 7 6 6 6 7 7
11 10 10 10 9 8 7 7 7 7 7 7 7 7 6 5 5 5 5 5 5 6 5 5 6 6 7 7 7 7 8 8 8 9 10 10 11 11 12 12 11 11 11 12 12 11 11 10 10 9 9 8 8 8 9 8 7 7 7 7 6 7 7
12 11 10 10 9 8 7 7 7 7 7 7 7 7 7 6 5 5 5 5 5 5 5 5 6 6 7 6 6 6 7 7 7 8 9 10 10 11 11 12 12 11 11 11 11 11 11 11 10 9 9 9 8 9 9 8 8 8 8 7 6 6 6
12 11 10 10 9 8 8 7 7 7 7 7 7 7 7 7 6 6 5 5 4 5 5 5 5 6 6 6 5 5 5 6 6 7 8 8 9 10 10 12 12 12 12 11 11 11 11 11 11 10 10 9 8 9 9 9 9 8 8 7 6 6 6
12 11 11 10 10 9 8 7 7 7 7 7 6 6 7 7 7 6 6 5 4 5 5 5 5 5 6 5 5 5 5 5 6 6 6 7 7 8 9 11 11 12 12 12 12 12 11 11 11 11 11 9 8 9 9 9 9 8 8 7 6 6 6
12 11 11 11 10 9 8 8 8 8 7 7 7 7 7 8 7 6 6 5 5 5 6 5 5 5 5 5 5 5 5 5 5 5 6 6 6 7 8 9 10 11 11 11 12 12 12 12 12 12 11 10 9 9 9 9 9 8 8 7 6 6 6
12 12 11 11 10 9 8 8 9 8 8 8 7 7 8 8 8 7 6 6 6 6 6 6 5 5 5 5 5 5 5 5 5 6 6 5 5 6 6 7 9 10 11 11 11 12 12 12 12 12 11 11 10 9 9 10 10 9 8 7 6 6 6
13 12 11 11 10 9 8 9 9 9 9 8 8 8 8 8 8 7 7 7 7 7 6 6 5 5 5 5 5 5 5 4 5 5 5 5 5 5 5 6 7 8 10 11 11 11 12 12 12 12 12 11 10 9 9 10 10 9 9 8 7 6 6
14 12 12 11 10 9 9 9 9 9 9 8 8 8 8 8 8 7 7 7 7 7 7 6 6 5 5 5 5 5 5 5 5 5 5 5 5 5 5 5 6 7 9 10 10 11 11 12 12 12 12 12 10 9 9 9 8 9 9 9 8 7 7
14 13 13 12 10 10 10 9 10 9 9 9 9 8 8 8 8 8 7 7 7 7 7 6 6 6 6 5 5 5 5 5 5 5 5 5 5 5 5 5 5 6 7 8 9 9 10 11 12 11 11 11 11 10 10 9 8 9 9 9 9 8 8
14 14 13 12 11 10 10 10 10 10 9 9 9 9 9 9 9 8 8 7 7 7 7 6 6 6 6 6 5 5 6 6 5 5 5 5 5 6 6 5 5 6 7 7 7 7 8 8 10 11 11 12 11 11 11 10 8 8 9 9 9 9 9
15 15 14 13 12 12 11 10 10 10 10 9 9 9 9 9 9 8 8 7 7 7 7 7 7 7 7 6 6 6 6 6 6 6 6 6 6 7 6 6 6 6 7 7 7 7 7 7 8 9 10 12 12 12 12 10 9 9 9 10 10 10 10
15 15 14 14 13 13 11 11 10 10 9 9 9 9 8 8 8 8 8 8 8 8 8 8 7 7 7 7 7 6 6 7 7 7 7 7 7 8 8 7 7 7 7 7 7 7 7 7 7 8 9 11 12 12 12 11 10 10 10 10 11 11 11
14 14 14 14 13 13 12 11 11 10 10 10 9 9 8 8 8 8 8 9 9 9 8 8 8 8 8 7 7 7 7 7 7 7 7 7 8 8 8 8 8 8 8 7 7 7 7 8 8 8 8 9 11 12 12 11 11 10 10 11 11 12 11
15 14 13 13 12 12 12 12 11 11 10 11 10 10 9 9 8 9 9 9 9 9 9 9 8 8 8 8 8 8 8 8 8 8 8 8 8 8 8 8 8 8 8 7 7 7 7 7 7 7 8 9 10 11 11 12 11 11 11 12 12 12 12
15 14 14 12 11 11 12 12 12 11 11 11 11 11 11 10 10 10 10 9 9 10 10 9 9 10 9 9 9 9 9 9 9 9 9 9 8 8 8 8 8 8 8 8 8 8 8 8 8 8 9 9 10 11 12 12 12 12 12 12 13 13 13
14 14 14 13 12 12 12 11 12 12 11 11 11 11 12 12 11 12 11 11 10 10 10 10 11 11 11 10 10 10 10 10 10 10 10 10 10 9 10 10 9 9 9 9 10 10 10 10 11 11 11 11 12 12 12 13 13 13 13 13 14 14 14
14 14 13 13 13 13 12 12 12 12 11 11 12 12 12 12 12 12 12 12 12 11 11 11 12 12 12 12 12 12 12 12 12 12 12 12 12 12 12 12 12 12 12 12 12 12 12 13 13 13 13 13 13 13 14 14 14 14 15 15 15 16 16
14 14 13 13 13 13 13 13 13 13 12 12 12 12 12 12 12 13 13 13 13 13 12 12 12 13 14 14 14 14 14 14 14 14 14 14 14 14 14 14 14 14 15 15 15 15 15 15 15 15 15 15 15 15 16 16 16 16 16 16 16 17 17
13 13 13 12 13 13 12 13 13 13 12 12 11 11 11 12 12 13 13 13 14 14 14 14 14 14 15 15 15 16 16 16 16 16 16 16 16 16 16 16 16 16 16 17 17 17 17 17 17 17 17 17 17 17 17 18 18 18 17 17 17 17 17
12 12 12 13 13 13 13 13 14 13 12 11 11 11 11 12 12 13 13 14 14 15 16 16 16 16 16 16 17 17 18 18 18 18 18 18 17 17 17 17 17 18 18 18 19 19 19 19 18 18 18 18 18 18 19 19 19 19 19 19 19 19 19
11 11 12 13 13 13 13 14 15 14 12 11 12 12 12 12 13 13 14 14 14 15 16 17 18 18 18 18 18 18 19 19 20 20 20 20 19 19 19 19 19 20 20 20 20 20 20 20 20 20 20 20 20 20 20 21 21 21 21 21 21 21 21
10 10 11 12 12 12 13 14 15 15 14 13 13 13 13 13 14 14 14 15 15 15 16 17 18 19 20 20 20 20 20 20 21 21 21 21 22 22 22 22 22 22 22 22 22 22 23 23 23 22 22 22 22 22 22 22 23 23 23 23 23 23 23
9 9 10 10 11 12 12 13 14 15 15 15 14 15 15 15 15 16 16 16 17 17 17 17 18 19 20 21 22 22 22 22 23 23 23 23 23 23 24 24 25 25 25 25 24 24 24 24 24 24 24 24 24 24 23 24 24 24 25 25 25 25 25
9 10 10 10 11 12 13 13 14 14 14 15 16 17 17 17 17 18 18 19 19 19 19 19 20 20 21 22 22 23 23 24 24 25 25 25 25 25 25 26 27 27 27 27 26 26 26 26 26 26 26 26 26 26 26 26 26 26 26 26 26 26 26
11 12 12 13 13 14 14 15 15 16 16 17 17 17 18 18 19 19 20 20 21 22 22 23 23 23 23 23 24 24 24 25 25 26 26 26 27 27 27 28 28 28 28 28 27 27 27 27 28 28 28 28 28 28 28 28 28 28 28 28 28 27 26
14 15 15 16 16 16 17 17 18 18 19 19 19 19 19 20 20 21 21 22 22 23 23 24 25 26 26 27 27 27 27 27 27 27 28 28 28 28 29 29 30 30 29 29 29 29 29 30 30 30 30 30 30 30 30 30 29 29 29 29 28 26 26
17 18 18 19 19 20 20 20 21 21 21 22 22 22 23 23 23 23 23 24 24 25 25 26 27 27 28 29 30 30 30 31 31 30 30 30 30 30 30 31 31 31 31 32 32 32 32 32 32 32 32 33 33 32 32 31 31 30 29 28 27 26 26
19 20 21 21 22 22 23 23 24 24 24 25 25 25 26 26 26 26 26 27 27 28 29 29 30 30 31 30 31 32 33 33 34 34 34 33 33 33 33 34 34 34 34 34 35 35 35 35 35 35 35 35 35 34 33 32 31 30 29 28 28 27 27
21 22 22 23 24 25 25 26 27 27 28 28 28 29 29 29 30 30 30 31 31 31 32 32 33 33 34 33 34 34 34 35 36 36 36 36 36 36 36 36 36 37 37 37 37 37 37 37 37 36 36 36 36 35 33 32 30 29 28 27 27 27 26
22 23 24 25 25 26 27 28 29 29 30 30 31 32 32 33 33 33 34 34 34 34 35 35 35 36 36 36 36 36 37 37 37 37 37 38 38 38 38 38 38 38 38 39 38 39 39 38 38 38 38 37 36 34 31 29 28 27 26 26 25 25 25
25 26 26 27 27 28 28 29 29 30 31 32 32 33 34 35 35 36 36 37 37 37 37 37 38 38 38 38 38 38 39 39 38 39 39 39 39 39 39 39 39 39 39 40 40 39 39 39 40 39 38 36 33 31 29 29 28 28 26 25 25 25 25
27 28 28 29 29 29 30 30 31 31 32 33 34 34 35 36 37 37 38 39 39 40 40 40 40 40 40 40 40 40 40 40 40 40 41 41 41 41 40 40 40 40 40 40 40 40 40 40 39 38 37 34 32 31 30 30 29 28 27 26 25 25 25
28 29 29 30 31 31 32 32 33 33 34 34 35 35 36 37 38 39 39 40 41 41 41 41 42 42 42 42 42 41 42 42 42 42 42 42 42 42 42 41 41 40 40 40 40 41 40 39 39 37 35 33 32 31 31 29 28 27 26 25 25 25 24
Wind_Direction
197 204 210 213 213 210 212 219 225 228 225 224 227 231 234 229 226 226 227 229 232 233 233 233 230 228 226 225 224 225 227 227 228 228 227 227 226 227 228 225 223 219 215 216 218 212 207 207 213 216 211 207 205 205 209 215 223 232 234 236 242 247 252
204 207 209 212 210 207 214 220 225 228 228 228 229 230 232 230 229 229 230 233 234 233 234 236 235 232 228 225 224 225 228 229 230 230 229 229 228 227 225 221 218 214 214 219 219 215 211 204 208 215 213 208 209 214 219 221 226 234 238 242 247 249 252
205 208 209 209 207 208 215 220 223 225 226 228 228 228 230 232 235 234 236 236 232 231 233 235 234 233 230 227 225 225 225 228 230 229 229 229 228 227 224 221 217 214 215 221 221 219 219 214 210 211 209 207 210 218 224 225 228 234 242 250 253 254 255
199 204 205 204 204 210 217 220 220 222 226 230 232 234 237 239 242 237 234 232 227 227 232 233 231 231 229 227 228 227 226 226 226 227 228 227 226 226 226 224 222 219 218 220 220 219 220 219 212 210 211 210 210 214 219 223 231 238 247 256 259 259 259
198 202 201 200 204 211 216 218 219 225 235 240 240 243 244 243 243 234 228 226 224 224 226 229 226 223 223 223 225 227 228 227 225 224 225 225 225 226 226 227 225 224 223 220 217 215 216 214 210 210 213 213 213 214 215 221 234 244 253 261 264 262 262
199 202 203 204 208 211 215 218 224 233 242 249 249 247 243 237 234 229 224 222 221 219 220 222 219 215 215 216 219 223 227 229 227 225 224 224 226 228 228 228 226 226 224 219 215 213 212 210 207 207 210 212 211 210 216 225 234 244 255 263 267 265 262
204 208 211 213 213 216 221 226 233 240 246 251 251 244 235 227 223 221 219 219 218 217 217 220 217 211 212 216 219 221 225 229 228 225 224 224 227 229 230 229 227 225 221 215 213 210 208 207 205 203 205 210 211 211 220 231 236 245 253 259 264 261 255
212 215 217 218 217 221 229 233 238 243 245 245 243 239 230 221 217 217 217 220 218 214 214 218 217 213 214 218 222 222 223 224 223 221 221 222 223 225 227 227 225 221 217 214 212 210 210 209 206 204 204 208 216 221 227 233 239 247 249 249 253 251 244
214 215 216 217 218 223 232 236 239 242 242 240 238 236 231 223 220 219 219 219 213 210 212 215 216 215 216 218 219 221 222 219 213 211 211 212 215 218 221 223 221 218 216 215 213 214 216 213 209 209 207 209 215 222 230 235 238 241 239 239 241 236 233
211 213 214 214 217 226 234 237 237 238 239 239 237 236 232 226 222 220 218 216 211 209 210 213 216 215 215 214 213 215 217 215 208 205 205 206 211 216 219 219 219 218 217 216 215 217 217 214 212 212 214 217 218 219 229 233 233 232 230 233 236 229 227
213 215 216 216 220 226 232 233 232 233 237 238 238 239 233 225 221 220 218 213 210 210 211 215 218 215 214 213 212 213 212 209 205 205 208 210 212 215 216 216 217 216 215 215 216 217 216 216 218 219 220 224 223 221 224 225 227 230 227 230 236 234 232
217 218 219 219 222 226 231 230 228 231 235 238 240 238 230 222 219 218 214 210 209 211 216 220 218 215 217 217 216 216 213 208 204 203 207 209 209 209 207 208 210 210 209 211 214 216 218 220 222 223 223 223 223 223 217 214 222 228 226 231 238 240 242
220 220 220 220 221 226 231 231 230 233 237 239 238 233 224 219 217 215 210 208 210 215 220 223 219 216 219 220 217 216 214 210 206 203 204 206 207 206 201 199 201 201 201 204 208 213 218 222 224 225 224 221 221 221 216 215 223 228 228 234 240 243 247
222 221 221 222 223 228 233 233 233 236 237 236 232 225 220 218 217 214 211 210 214 219 223 223 218 218 220 219 217 215 212 211 210 206 204 204 206 205 200 197 194 193 194 196 200 207 213 218 221 222 222 222 221 221 221 221 226 231 234 237 242 246 249
224 223 225 227 228 231 234 234 234 235 233 229 224 221 219 218 217 214 213 216 219 221 224 222 218 217 217 216 217 216 213 212 213 211 209 209 208 206 204 200 198 199 202 205 210 217 221 222 222 222 224 226 224 224 226 228 232 239 240 241 243 247 249
224 225 228 230 231 233 234 233 232 232 227 221 217 215 215 216 216 215 217 220 221 221 221 218 214 212 213 215 216 215 213 213 213 214 213 212 211 210 207 205 205 207 211 215 221 228 233 235 234 231 229 228 227 228 232 237 243 245 243 244 245 247 250
227 229 231 232 232 232 231 229 228 226 222 217 215 217 219 221 220 219 220 222 222 220 217 214 213 212 213 215 214 212 212 213 214 214 213 211 210 210 208 208 209 212 215 218 223 229 234 237 238 238 235 231 231 234 239 245 249 249 246 247 249 250 252
230 233 233 231 230 227 224 224 225 223 220 218 218 221 224 226 225 222 223 223 222 220 218 217 215 215 216 215 212 212 212 213 213 212 211 210 208 207 208 210 212 215 218 221 226 232 236 238 241 242 241 239 240 244 248 251 253 253 251 251 253 254 255
231 231 228 227 227 223 221 222 222 221 220 219 222 225 227 229 228 227 228 229 227 225 224 223 219 217 219 219 216 215 214 216 217 215 214 214 213 213 213 214 216 220 224 228 231 236 241 245 248 249 248 248 250 253 255 256 257 257 257 256 257 257 258
230 227 224 226 226 221 221 224 223 221 221 222 226 229 229 230 231 231 232 233 232 230 229 229 224 221 223 224 222 221 221 222 223 223 223 224 224 225 225 226 229 232 235 238 241 243 247 250 252 255 256 256 257 257 257 258 260 260 261 261 262 262 262
228 226 225 228 227 223 225 227 224 223 224 225 228 229 229 231 233 234 234 233 232 231 233 233 229 225 227 227 225 225 226 227 229 232 234 235 235 236 237 239 241 242 244 247 250 251 252 253 255 258 261 262 263 263 262 261 262 263 263 263 264 265 265
227 225 226 227 226 226 229 227 225 227 228 229 231 231 229 231 233 232 232 233 233 233 235 237 234 230 230 231 230 230 231 232 235 238 240 242 242 244 245 247 248 249 250 252 255 257 258 258 259 260 262 263 265 266 267 266 266 266 265 264 264 265 265
225 224 226 227 226 228 229 226 224 228 231 232 234 234 231 229 229 230 231 234 236 237 238 240 239 236 235 236 237 237 237 237 238 240 242 244 245 247 249 251 251 252 253 255 258 259 260 261 262 262 262 264 265 267 267 268 268 268 267 267 266 266 265
224 227 230 230 230 234 234 228 225 229 234 236 237 237 233 230 230 232 234 236 238 239 240 241 242 241 241 241 242 243 242 242 242 243 244 246 247 249 250 253 254 256 258 260 261 261 260 261 262 262 263 265 267 268 268 268 268 268 268 269 269 268 266
229 234 236 235 237 240 236 229 227 231 237 242 243 239 235 234 235 237 239 240 241 241 242 242 242 243 244 244 245 247 247 246 246 246 246 247 249 250 252 254 256 259 260 260 261 261 261 261 262 263 264 266 268 270 270 270 270 269 269 270 270 270 268
232 236 239 240 242 240 235 233 237 242 246 249 246 239 238 240 242 243 244 243 244 244 245 245 245 244 245 246 247 248 249 249 249 249 250 251 252 252 254 255 258 259 260 260 260 261 262 262 262 263 265 267 269 271 272 273 273 271 270 270 271 270 269
238 239 242 243 244 243 241 243 248 250 250 248 244 242 243 245 247 247 248 248 247 248 249 249 250 249 248 248 248 249 250 250 250 251 252 253 254 255 256 258 259 260 261 260 260 261 261 261 262 262 265 267 269 271 273 274 274 273 272 272 272 271 270
246 249 250 250 251 251 252 254 255 254 252 249 249 250 251 252 251 251 252 253 253 253 253 253 253 253 253 252 251 252 252 252 252 253 254 254 256 257 259 260 261 261 261 260 260 260 260 261 262 263 265 266 268 270 273 274 274 273 273 273 273 272 270
251 253 254 255 256 257 258 259 259 259 258 257 257 257 258 258 257 257 257 257 257 258 258 257 256 256 255 255 255 256 256 255 255 255 256 256 257 258 260 262 262 262 261 260 259 259 261 262 263 263 265 266 268 271 273 273 273 271 271 271 272 270 268
255 256 257 257 258 259 259 260 260 260 261 261 261 261 262 262 261 261 261 261 261 262 261 261 260 258 257 257 258 258 258 258 258 258 258 259 259 260 262 263 264 264 263 261 260 262 263 265 265 264 265 266 269 271 272 272 271 270 269 268 267 264 263
260 260 260 260 260 261 261 261 262 262 262 263 263 263 263 263 263 263 264 264 265 265 265 265 264 263 260 259 259 259 260 260 260 260 260 260 260 262 264 265 265 265 264 262 263 264 265 267 267 266 266 267 269 270 270 270 269 268 268 266 262 259 260
263 263 263 263 263 263 262 262 263 263 263 264 264 264 264 264 264 264 265 266 267 268 268 267 266 265 264 263 261 261 261 260 261 262 261 260 261 263 265 267 267 266 265 265 265 265 266 268 268 267 266 267 269 269 269 268 266 265 264 262 259 260 261
264 265 265 266 266 265 265 265 265 265 266 265 265 265 265 265 265 265 265 266 268 269 269 269 268 266 266 265 263 263 262 261 262 262 262 261 261 263 266 268 269 268 268 267 267 267 268 269 269 267 267 268 268 268 267 266 262 260 259 259 258 258 260
267 267 267 268 268 269 269 269 268 268 268 268 267 267 267 267 267 266 266 266 268 269 269 269 268 267 267 266 265 264 264 263 262 262 262 262 263 264 267 269 269 269 268 268 268 268 268 269 269 267 266 267 266 264 261 259 257 256 257 257 255 254 257
270 270 271 271 272 272 271 271 271 270 270 270 270 270 270 269 269 269 268 268 268 270 270 270 270 269 268 267 265 264 264 263 262 262 262 263 264 266 267 268 268 268 268 268 269 268 268 268 268 267 265 263 260 256 254 254 254 255 255 253 251 253 256
271 272 273 274 274 274 274 274 273 273 273 273 272 272 271 271 270 270 270 269 270 270 271 271 271 270 268 267 266 264 264 263 263 263 263 264 265 266 267 268 268 268 267 267 267 268 268 268 267 265 261 258 254 251 251 252 251 251 250 249 250 252 255
274 274 275 276 276 276 276 275 275 275 275 274 274 273 273 272 272 272 272 272 272 271 271 272 272 271 270 268 267 266 264 263 263 263 264 264 265 267 267 268 268 267 266 266 266 266 266 265 265 262 257 251 249 250 249 246 245 244 245 246 248 251 254